Location: Unspecified
(0.0000°N, 0.0000°E)
Time: 17:56:41
(UTC+00:00)

STARLINK 1022 - Pass Details

Date: 15 January 2020
Orbit: 548 x 551 km, 53.0° (Epoch: 17 January)

Event Time Altitude Azimuth Distance (km) Brightness Sun altitude
Rises 18:55:43 0° 333° (NNW) 2,700 7.2 -10.8°
Reaches altitude 10° 18:57:58 10° 337° (NNW) 1,810 6.3 -11.3°
Maximum altitude 19:02:00 57° 56° (ENE) 649 3.6 -12.3°
Drops below altitude 10° 19:06:04 10° 135° (SE) 1,820 6.0 -13.2°
Sets 19:08:20 0° 139° (SE) 2,715 7.0 -13.7°
